Overview Statistics Trail Chart Weather Telemetry Raw packets
 

This is the latest recevied weather packets stored in our database for station/object KI5RAB. If no packets are shown the sender has not sent any weather packets the latest 10 day(s).

<< 32 33 34 35 36 37 38 >>
Time Temp. Humidity Pressure Rain* Wind** Luminosity Snow
1788444306 28.33° C 82% 1017.4 hPa 0 mm - 83 W/m² -
1788444006 28.33° C 82% 1017.6 hPa 0 mm - 142 W/m² -
1788443701 28.33° C 82% 1017.7 hPa 0 mm - 177 W/m² -
1788443396 27.78° C 82% 1017.6 hPa 0 mm - 110 W/m² -
1788443095 27.78° C 83% 1017.8 hPa 0 mm - 93 W/m² -
1788442792 27.78° C 83% 1017.8 hPa 0 mm - 106 W/m² -
1788442489 27.78° C 83% 1017.9 hPa 0 mm - 115 W/m² -
1788442184 27.78° C 83% 1017.6 hPa 0 mm - 85 W/m² -
1788441879 27.78° C 83% 1017.6 hPa 0 mm - 69 W/m² -
1788441574 27.22° C 84% 1017.6 hPa 0 mm - 87 W/m² -
1788441269 26.67° C 86% 1017.6 hPa 0 mm - 75 W/m² -
1788440968 26.67° C 86% 1017.7 hPa 0 mm - 51 W/m² -
1788440663 26.67° C 86% 1017.8 hPa 0 mm - 35 W/m² -
1788440361 26.67° C 86% 1017.7 hPa 0 mm - 31 W/m² -
1788440056 26.67° C 86% 1017.5 hPa 0 mm - 23 W/m² -
1788439755 26.67° C 86% 1017.3 hPa 0 mm - 23 W/m² -
1788439473 26.67° C 86% 1017.3 hPa 0 mm - 20 W/m² -
1788439149 26.67° C 87% 1017.4 hPa 0 mm - 13 W/m² -
1788438844 26.11° C 87% 1017.3 hPa 0 mm - 8 W/m² -
1788438543 26.67° C 87% 1017.4 hPa 0 mm - 9 W/m² -
1788438238 26.67° C 87% 1017.3 hPa 0 mm - 7 W/m² -
1788437945 26.11° C 87% 1017.2 hPa 0 mm - 4 W/m² -
1788437632 26.67° C 87% 1017.2 hPa 0 mm - 3 W/m² -
1788437328 26.67° C 87% 1017.3 hPa 0 mm - 1 W/m² -
1788437021 26.67° C 87% 1017.2 hPa 0 mm - 1 W/m² -

* Rain latest hour (hover to see other rain measurements)
** Current wind speed in m/s (hover to see current wind gust speed)